When you browse on this site, cookies collect data to enhance your experience and personalize the content and advertising you see.
Visit our Privacy Policy to learn more. By continuing to use the site, you agree to this use of cookies and data.
  • In United Kingdom
  • List of Countries
  • For 7 days
  • Water Temperature
  • Satellite Maps
  • Weather Map
  • Weather Widgets
  • user-avatar
    Login

    Hourly Weather Jewłach

    Today, 23 July, Tuesday

    Time Temperature Precipitation Wind Pressure Humidity
    00:00 +30°C° 0 mm 4 mps 756 mmHg 53%
    01:00 +30°C° 0 mm 4 mps 756 mmHg 53%
    02:00 +29°C° 0 mm 4 mps 756 mmHg 54%
    03:00 +29°C° 0 mm 3 mps 756 mmHg 55%
    04:00 +29°C° 0 mm 3 mps 757 mmHg 54%
    05:00 +30°C° 0 mm 4 mps 757 mmHg 53%
    06:00 +30°C° 0 mm 4 mps 757 mmHg 52%
    07:00 +33°C° 0 mm 4 mps 757 mmHg 47%
    08:00 +34°C° 0 mm 5 mps 757 mmHg 43%
    09:00 +36°C° 0 mm 5 mps 756 mmHg 38%
    10:00 +37°C° 0 mm 5 mps 756 mmHg 35%
    11:00 +39°C° 0 mm 6 mps 756 mmHg 32%
    12:00 +41°C° 0 mm 6 mps 755 mmHg 29%
    13:00 +41°C° 0 mm 6 mps 755 mmHg 28%
    14:00 +43°C° 0 mm 7 mps 754 mmHg 26%
    15:00 +43°C° 0 mm 7 mps 753 mmHg 25%
    16:00 +43°C° 0 mm 8 mps 753 mmHg 26%
    17:00 +42°C° 0 mm 9 mps 753 mmHg 27%
    18:00 +40°C° 0 mm 9 mps 754 mmHg 29%
    19:00 +38°C° 0 mm 8 mps 754 mmHg 34%
    20:00 +34°C° 0 mm 7 mps 754 mmHg 39%
    21:00 +32°C° 0 mm 6 mps 754 mmHg 44%
    22:00 +30°C° 0 mm 6 mps 754 mmHg 47%
    23:00 +29°C° 0 mm 5 mps 754 mmHg 50%

    Tomorrow, 24 July, Wednesday

    Time Temperature Precipitation Wind Pressure Humidity
    00:00 +29°C° 0 mm 4 mps 754 mmHg 53%
    01:00 +28°C° 0 mm 4 mps 754 mmHg 53%
    02:00 +28°C° 0 mm 3 mps 754 mmHg 54%
    03:00 +28°C° 0 mm 3 mps 754 mmHg 55%
    04:00 +28°C° 0 mm 3 mps 754 mmHg 55%
    05:00 +28°C° 0 mm 2 mps 754 mmHg 55%
    06:00 +28°C° 0 mm 2 mps 754 mmHg 55%
    07:00 +30°C° 0 mm 2 mps 754 mmHg 49%
    08:00 +32°C° 0 mm 2 mps 754 mmHg 43%
    09:00 +34°C° 0 mm 3 mps 754 mmHg 38%
    10:00 +36°C° 0 mm 3 mps 753 mmHg 35%
    11:00 +37°C° 0 mm 2 mps 753 mmHg 32%
    12:00 +38°C° 0 mm 2 mps 752 mmHg 29%
    13:00 +39°C° 0 mm 2 mps 752 mmHg 28%
    14:00 +40°C° 0 mm 2 mps 751 mmHg 26%
    15:00 +40°C° 0 mm 2 mps 751 mmHg 25%
    16:00 +40°C° 0 mm 2 mps 751 mmHg 26%
    17:00 +40°C° 0 mm 2 mps 751 mmHg 26%
    18:00 +40°C° 0 mm 3 mps 751 mmHg 27%
    19:00 +38°C° 0 mm 3 mps 752 mmHg 32%
    20:00 +36°C° 0 mm 4 mps 752 mmHg 37%
    21:00 +34°C° 0 mm 5 mps 753 mmHg 42%
    22:00 +32°C° 0 mm 4 mps 753 mmHg 46%
    23:00 +30°C° 0 mm 4 mps 753 mmHg 51%

    Day after tomorrow, 25 July, Thursday

    Time Temperature Precipitation Wind Pressure Humidity
    00:00 +29°C° 0 mm 3 mps 753 mmHg 55%
    01:00 +28°C° 0 mm 2 mps 753 mmHg 57%
    02:00 +28°C° 0 mm 1 mps 753 mmHg 59%
    03:00 +25°C° 0 mm 0 mps 753 mmHg 61%
    04:00 +28°C° 0 mm 1 mps 753 mmHg 59%
    05:00 +29°C° 0 mm 1 mps 753 mmHg 58%
    06:00 +29°C° 0 mm 1 mps 754 mmHg 56%
    07:00 +31°C° 0 mm 2 mps 753 mmHg 51%
    08:00 +34°C° 0 mm 3 mps 753 mmHg 46%
    09:00 +35°C° 0 mm 3 mps 753 mmHg 41%
    10:00 +37°C° 0 mm 3 mps 753 mmHg 37%
    11:00 +38°C° 0 mm 4 mps 753 mmHg 34%
    12:00 +41°C° 0 mm 4 mps 752 mmHg 30%
    13:00 +42°C° 0 mm 4 mps 752 mmHg 28%
    14:00 +43°C° 0 mm 4 mps 752 mmHg 26%
    15:00 +43°C° 0 mm 4 mps 751 mmHg 24%
    16:00 +43°C° 0 mm 4 mps 751 mmHg 23%
    17:00 +43°C° 0 mm 4 mps 751 mmHg 23%
    18:00 +43°C° 0 mm 3 mps 752 mmHg 22%
    19:00 +39°C° 0 mm 3 mps 752 mmHg 28%
    20:00 +36°C° 0 mm 3 mps 753 mmHg 35%
    21:00 +33°C° 0 mm 3 mps 754 mmHg 42%
    22:00 +33°C° 0 mm 3 mps 754 mmHg 44%
    23:00 +31°C° 0 mm 3 mps 755 mmHg 46%

    26 July, Friday

    Time Temperature Precipitation Wind Pressure Humidity
    00:00 +30°C° 0 mm 3 mps 755 mmHg 49%
    01:00 +29°C° 0 mm 3 mps 755 mmHg 49%
    02:00 +29°C° 0 mm 4 mps 755 mmHg 49%
    03:00 +28°C° 0 mm 5 mps 755 mmHg 50%
    04:00 +28°C° 0 mm 5 mps 755 mmHg 49%
    05:00 +28°C° 0 mm 5 mps 756 mmHg 48%
    06:00 +28°C° 0 mm 6 mps 756 mmHg 47%
    07:00 +30°C° 0 mm 6 mps 756 mmHg 43%
    08:00 +32°C° 0 mm 6 mps 756 mmHg 39%
    09:00 +34°C° 0 mm 5 mps 756 mmHg 35%
    10:00 +35°C° 0 mm 5 mps 755 mmHg 33%
    11:00 +36°C° 0 mm 4 mps 755 mmHg 31%
    12:00 +38°C° 0 mm 3 mps 755 mmHg 29%
    13:00 +38°C° 0 mm 3 mps 755 mmHg 28%
    14:00 +39°C° 0 mm 3 mps 754 mmHg 27%
    15:00 +40°C° 0 mm 3 mps 754 mmHg 26%
    16:00 +40°C° 0 mm 4 mps 754 mmHg 29%
    17:00 +39°C° 0 mm 6 mps 754 mmHg 32%
    18:00 +38°C° 0 mm 8 mps 754 mmHg 35%
    19:00 +35°C° 0 mm 8 mps 755 mmHg 41%
    20:00 +33°C° 0 mm 8 mps 756 mmHg 47%
    21:00 +31°C° 0 mm 8 mps 756 mmHg 52%
    22:00 +29°C° 0 mm 7 mps 756 mmHg 55%
    23:00 +29°C° 0 mm 6 mps 756 mmHg 57%

    27 July, Saturday

    Time Temperature Precipitation Wind Pressure Humidity
    00:00 +28°C° 0 mm 6 mps 757 mmHg 59%
    01:00 +28°C° 0 mm 5 mps 756 mmHg 60%
    02:00 +27°C° 0 mm 4 mps 756 mmHg 60%
    03:00 +27°C° 0 mm 3 mps 756 mmHg 60%
    04:00 +27°C° 0 mm 3 mps 756 mmHg 59%
    05:00 +27°C° 0 mm 3 mps 756 mmHg 58%
    06:00 +28°C° 0 mm 3 mps 756 mmHg 57%
    07:00 +29°C° 0 mm 3 mps 756 mmHg 51%
    08:00 +32°C° 0 mm 4 mps 755 mmHg 45%
    09:00 +33°C° 0 mm 5 mps 755 mmHg 39%
    10:00 +35°C° 0 mm 5 mps 755 mmHg 36%
    11:00 +36°C° 0 mm 5 mps 755 mmHg 34%
    12:00 +37°C° 0 mm 5 mps 754 mmHg 31%
    13:00 +37°C° 0 mm 5 mps 754 mmHg 30%
    14:00 +38°C° 0 mm 4 mps 753 mmHg 29%
    15:00 +38°C° 0 mm 4 mps 753 mmHg 28%
    16:00 +38°C° 0 mm 4 mps 753 mmHg 29%
    17:00 +38°C° 0 mm 3 mps 752 mmHg 29%
    18:00 +37°C° 0 mm 3 mps 752 mmHg 29%
    19:00 +35°C° 0 mm 4 mps 753 mmHg 32%
    20:00 +33°C° 0 mm 5 mps 753 mmHg 35%
    21:00 +30°C° 0 mm 6 mps 753 mmHg 38%
    22:00 +29°C° 0 mm 5 mps 753 mmHg 41%
    23:00 +28°C° 0 mm 4 mps 753 mmHg 44%

    28 July, Sunday

    Time Temperature Precipitation Wind Pressure Humidity
    00:00 +27°C° 0 mm 3 mps 753 mmHg 47%
    01:00 +27°C° 0 mm 3 mps 753 mmHg 49%
    02:00 +26°C° 0 mm 3 mps 753 mmHg 52%
    03:00 +25°C° 0 mm 2 mps 753 mmHg 54%
    04:00 +26°C° 0 mm 2 mps 753 mmHg 53%
    05:00 +26°C° 0 mm 2 mps 753 mmHg 53%
    06:00 +27°C° 0 mm 2 mps 753 mmHg 52%
    07:00 +29°C° 0 mm 3 mps 752 mmHg 46%
    08:00 +30°C° 0 mm 3 mps 752 mmHg 40%
    09:00 +33°C° 0 mm 4 mps 752 mmHg 34%
    10:00 +35°C° 0 mm 3 mps 752 mmHg 32%
    11:00 +36°C° 0 mm 3 mps 751 mmHg 30%
    12:00 +37°C° 0 mm 3 mps 751 mmHg 27%
    13:00 +38°C° 0 mm 3 mps 750 mmHg 26%
    14:00 +38°C° 0 mm 3 mps 750 mmHg 25%
    15:00 +39°C° 0 mm 2 mps 749 mmHg 24%
    16:00 +39°C° 0 mm 3 mps 749 mmHg 25%
    17:00 +39°C° 0 mm 3 mps 749 mmHg 25%
    18:00 +38°C° 0 mm 3 mps 749 mmHg 26%
    19:00 +36°C° 0 mm 4 mps 750 mmHg 30%
    20:00 +34°C° 0 mm 5 mps 750 mmHg 34%
    21:00 +32°C° 0 mm 6 mps 751 mmHg 38%
    22:00 +30°C° 0 mm 5 mps 751 mmHg 42%
    23:00 +28°C° 0 mm 4 mps 751 mmHg 46%
    Show more